Wetterdaten: aktuell Freitag, 21.02.2020 06:58
Datum Zeit Temp. I. Temp. 2m Temp. 5cm Temp. OG Feuchte I. Feuchte 2m Luftdruck Regen Wind Richtung Richtung Taupunkt Windchill Windben
21.02.2020 06:58 20,4 C 4,6 C 4,4 C 18,8 C 57 % 86 % 1025,5 hPa 0,0 l/m 8,9 km/h (2 Bft) W-SW 247 2,5 C 2,5 C 15,4 km/h (3 Bft)
21.02.2020 06:56 20,4 C 4,7 C 4,2 C 18,8 C 57 % 86 % 1025,5 hPa 0,0 l/m 9,2 km/h (2 Bft) W-SW 247 2,6 C 2,3 C 8,7 km/h (2 Bft)
21.02.2020 06:54 20,4 C 4,7 C 4,2 C 18,8 C 58 % 86 % 1025,5 hPa 0,0 l/m 9,7 km/h (2 Bft) O-SO 112 2,6 C 2,0 C 8,4 km/h (2 Bft)
21.02.2020 06:52 20,4 C 4,7 C 4,2 C 18,8 C 58 % 86 % 1025,5 hPa 0,0 l/m 9,7 km/h (2 Bft) W 270 2,6 C 2,0 C 12,3 km/h (3 Bft)
21.02.2020 06:50 20,4 C 4,8 C 4,4 C 18,8 C 58 % 86 % 1025,5 hPa 0,0 l/m 9,7 km/h (2 Bft) NW 315 2,7 C 2,1 C 8,2 km/h (2 Bft)
21.02.2020 06:48 20,4 C 4,8 C 4,1 C 18,8 C 58 % 86 % 1025,5 hPa 0,0 l/m 9,2 km/h (2 Bft) N-NO 22 2,7 C 2,4 C 15,0 km/h (3 Bft)
21.02.2020 06:46 20,4 C 4,8 C 4,4 C 18,8 C 58 % 86 % 1025,5 hPa 0,0 l/m 8,7 km/h (2 Bft) W-SW 247 2,7 C 2,8 C 8,2 km/h (2 Bft)
21.02.2020 06:44 20,4 C 4,8 C 4,4 C 18,8 C 57 % 86 % 1025,5 hPa 0,0 l/m 8,9 km/h (2 Bft) S 180 2,7 C 2,7 C 15,7 km/h (3 Bft)
21.02.2020 06:42 20,4 C 4,9 C 4,4 C 18,8 C 57 % 86 % 1025,5 hPa 0,0 l/m 8,7 km/h (2 Bft) W-NW 292 2,8 C 2,9 C 15,2 km/h (3 Bft)
21.02.2020 06:40 20,4 C 4,9 C 4,3 C 18,8 C 57 % 86 % 1024,6 hPa 0,0 l/m 8,4 km/h (2 Bft) SW 225 2,8 C 3,2 C 10,6 km/h (2 Bft)
21.02.2020 06:38 20,4 C 5,0 C 4,5 C 18,8 C 57 % 86 % 1024,6 hPa 0,0 l/m 8,2 km/h (2 Bft) NW 315 2,9 C 3,4 C 19,8 km/h (3 Bft)
21.02.2020 06:36 20,4 C 5,0 C 4,6 C 18,8 C 57 % 86 % 1024,6 hPa 0,0 l/m 8,7 km/h (2 Bft) SW 225 2,9 C 3,0 C 8,9 km/h (2 Bft)
21.02.2020 06:34 20,4 C 5,1 C 4,7 C 18,8 C 56 % 86 % 1024,6 hPa 0,0 l/m 8,9 km/h (2 Bft) SW 225 3,0 C 3,0 C 16,4 km/h (3 Bft)
21.02.2020 06:32 20,2 C 5,0 C 4,7 C 18,8 C 56 % 86 % 1024,6 hPa 0,0 l/m 10,1 km/h (2 Bft) N-NO 22 2,9 C 2,0 C 9,4 km/h (2 Bft)
21.02.2020 06:30 20,2 C 5,0 C 4,7 C 18,8 C 55 % 86 % 1024,6 hPa 0,0 l/m 11,1 km/h (2 Bft) W 270 2,9 C 1,3 C 8,2 km/h (2 Bft)
21.02.2020 06:28 20,3 C 5,0 C 4,6 C 18,8 C 55 % 86 % 1024,6 hPa 0,0 l/m 12,6 km/h (3 Bft) SW 225 2,9 C 0,4 C 11,1 km/h (2 Bft)
21.02.2020 06:26 20,3 C 5,0 C 4,7 C 18,8 C 55 % 86 % 1024,6 hPa 0,0 l/m 12,6 km/h (3 Bft) S 180 2,9 C 0,4 C 15,9 km/h (3 Bft)
21.02.2020 06:24 20,3 C 5,1 C 4,7 C 18,8 C 54 % 86 % 1024,6 hPa 0,0 l/m 13,0 km/h (3 Bft) W 270 3,0 C 0,3 C 13,5 km/h (3 Bft)
21.02.2020 06:22 20,2 C 5,2 C 4,7 C 18,8 C 54 % 86 % 1024,6 hPa 0,0 l/m 13,0 km/h (3 Bft) W-NW 292 3,1 C 0,4 C 17,1 km/h (3 Bft)
21.02.2020 06:20 20,2 C 5,2 C 4,7 C 18,8 C 54 % 86 % 1023,8 hPa 0,0 l/m 12,1 km/h (2 Bft) W-SW 247 3,1 C 0,9 C 21,5 km/h (4 Bft)
21.02.2020 06:18 20,2 C 5,2 C 4,8 C 18,8 C 54 % 87 % 1023,8 hPa 0,0 l/m 12,6 km/h (3 Bft) W 270 3,2 C 0,6 C 13,8 km/h (3 Bft)
21.02.2020 06:16 20,2 C 5,2 C 4,8 C 18,8 C 54 % 87 % 1023,8 hPa 0,0 l/m 12,1 km/h (2 Bft) S-SW 202 3,2 C 0,9 C 21,5 km/h (4 Bft)
21.02.2020 06:14 20,2 C 5,2 C 4,7 C 18,8 C 54 % 88 % 1023,8 hPa 0,0 l/m 12,6 km/h (3 Bft) S 180 3,4 C 0,6 C 15,2 km/h (3 Bft)
21.02.2020 06:12 20,2 C 5,1 C 4,7 C 18,8 C 53 % 88 % 1023,8 hPa 0,0 l/m 12,3 km/h (3 Bft) SO 135 3,3 C 0,7 C 21,0 km/h (4 Bft)
21.02.2020 06:10 20,2 C 5,2 C 4,8 C 18,8 C 53 % 88 % 1023,8 hPa 0,0 l/m 12,1 km/h (2 Bft) NW 315 3,4 C 0,9 C 16,7 km/h (3 Bft)
21.02.2020 06:08 20,2 C 5,1 C 4,8 C 18,8 C 53 % 88 % 1023,8 hPa 0,0 l/m 11,6 km/h (2 Bft) SW 225 3,3 C 1,1 C 11,1 km/h (2 Bft)
21.02.2020 06:06 20,2 C 5,1 C 4,8 C 18,8 C 53 % 88 % 1023,8 hPa 0,0 l/m 11,6 km/h (2 Bft) SW 225 3,3 C 1,1 C 11,1 km/h (2 Bft)
21.02.2020 06:04 20,2 C 5,1 C 4,8 C 18,8 C 53 % 88 % 1023,8 hPa 0,0 l/m 11,6 km/h (2 Bft) SW 225 3,3 C 1,1 C 11,1 km/h (2 Bft)
21.02.2020 06:02 20,2 C 5,1 C 4,8 C 18,8 C 53 % 88 % 1023,8 hPa 0,0 l/m 11,6 km/h (2 Bft) SW 225 3,3 C 1,1 C 11,1 km/h (2 Bft)
21.02.2020 06:00 20,2 C 5,1 C 4,7 C 18,8 C 54 % 89 % 1022,7 hPa 0,0 l/m 13,0 km/h (3 Bft) SW 225 3,4 C 0,3 C 15,9 km/h (3 Bft)
21.02.2020 05:58 20,2 C 5,1 C 4,8 C 18,8 C 54 % 89 % 1022,7 hPa 0,0 l/m 12,6 km/h (3 Bft) S-SO 157 3,4 C 0,5 C 17,6 km/h (3 Bft)
21.02.2020 05:56 20,2 C 5,2 C 4,8 C 18,8 C 53 % 89 % 1022,7 hPa 0,0 l/m 13,5 km/h (3 Bft) O-SO 112 3,5 C 0,1 C 17,4 km/h (3 Bft)
21.02.2020 05:54 20,2 C 5,2 C 4,8 C 18,8 C 53 % 89 % 1022,7 hPa 0,0 l/m 14,2 km/h (3 Bft) W-SW 247 3,5 C -0,3 C 18,3 km/h (3 Bft)
21.02.2020 05:52 20,2 C 5,2 C 4,8 C 18,8 C 54 % 89 % 1022,7 hPa 0,0 l/m 13,8 km/h (3 Bft) S 180 3,5 C -0,0 C 9,2 km/h (2 Bft)
21.02.2020 05:50 20,2 C 5,2 C 4,9 C 18,8 C 54 % 89 % 1022,7 hPa 0,0 l/m 13,5 km/h (3 Bft) O-NO 67 3,5 C 0,1 C 22,2 km/h (4 Bft)
21.02.2020 05:48 20,2 C 5,2 C 4,8 C 18,8 C 54 % 89 % 1022,7 hPa 0,0 l/m 13,5 km/h (3 Bft) W-SW 247 3,5 C 0,1 C 17,6 km/h (3 Bft)
21.02.2020 05:46 20,2 C 5,4 C 4,9 C 18,8 C 54 % 89 % 1022,7 hPa 0,0 l/m 13,3 km/h (3 Bft) W-SW 247 3,7 C 0,5 C 16,9 km/h (3 Bft)
21.02.2020 05:44 20,2 C 5,2 C 4,8 C 18,8 C 54 % 89 % 1022,7 hPa 0,0 l/m 13,5 km/h (3 Bft) SW 225 3,5 C 0,1 C 16,9 km/h (3 Bft)
21.02.2020 05:42 20,2 C 5,2 C 4,8 C 18,8 C 54 % 89 % 1022,7 hPa 0,0 l/m 13,5 km/h (3 Bft) SW 225 3,5 C 0,1 C 19,6 km/h (3 Bft)
21.02.2020 05:40 20,2 C 5,2 C 4,8 C 18,8 C 54 % 89 % 1022,1 hPa 0,0 l/m 13,3 km/h (3 Bft) SW 225 3,5 C 0,2 C 14,2 km/h (3 Bft)
21.02.2020 05:38 20,2 C 5,2 C 4,8 C 18,8 C 54 % 89 % 1022,1 hPa 0,0 l/m 13,0 km/h (3 Bft) W-SW 247 3,5 C 0,4 C 17,4 km/h (3 Bft)
21.02.2020 05:36 20,2 C 5,4 C 4,8 C 18,8 C 54 % 89 % 1022,1 hPa 0,0 l/m 13,0 km/h (3 Bft) S-SO 157 3,7 C 0,6 C 26,3 km/h (4 Bft)
21.02.2020 05:34 20,2 C 5,4 C 4,9 C 18,8 C 54 % 89 % 1022,1 hPa 0,0 l/m 13,0 km/h (3 Bft) W-NW 292 3,7 C 0,6 C 29,9 km/h (5 Bft)
21.02.2020 05:32 20,2 C 5,4 C 4,9 C 18,8 C 54 % 89 % 1022,1 hPa 0,0 l/m 12,6 km/h (3 Bft) SW 225 3,7 C 0,9 C 13,5 km/h (3 Bft)
21.02.2020 05:30 20,2 C 5,2 C 4,8 C 18,8 C 54 % 90 % 1022,1 hPa 0,0 l/m 12,6 km/h (3 Bft) S 180 3,7 C 0,6 C 13,0 km/h (3 Bft)
21.02.2020 05:28 20,2 C 5,4 C 4,9 C 18,8 C 54 % 90 % 1022,1 hPa 0,0 l/m 13,8 km/h (3 Bft) SW 225 3,9 C 0,2 C 20,0 km/h (4 Bft)
21.02.2020 05:26 20,2 C 5,4 C 5,0 C 18,8 C 54 % 90 % 1022,1 hPa 0,0 l/m 13,5 km/h (3 Bft) SW 225 3,9 C 0,4 C 19,1 km/h (3 Bft)
21.02.2020 05:24 20,2 C 5,2 C 4,8 C 18,8 C 54 % 90 % 1022,1 hPa 0,0 l/m 13,0 km/h (3 Bft) S-SW 202 3,7 C 0,4 C 20,0 km/h (4 Bft)
21.02.2020 05:22 20,2 C 5,1 C 4,7 C 18,8 C 54 % 90 % 1022,1 hPa 0,0 l/m 12,6 km/h (3 Bft) W-SW 247 3,6 C 0,5 C 22,4 km/h (4 Bft)
21.02.2020 05:20 20,2 C 5,2 C 4,6 C 18,8 C 54 % 90 % 1021,4 hPa 0,0 l/m 12,3 km/h (3 Bft) SW 225 3,7 C 0,8 C 16,2 km/h (3 Bft)
21.02.2020 05:18 20,2 C 5,1 C 4,6 C 18,8 C 54 % 90 % 1021,4 hPa 0,0 l/m 12,1 km/h (2 Bft) W-SW 247 3,6 C 0,8 C 25,8 km/h (4 Bft)
21.02.2020 05:16 20,3 C 5,1 C 4,6 C 18,8 C 54 % 90 % 1021,4 hPa 0,0 l/m 10,9 km/h (2 Bft) W-SW 247 3,6 C 1,6 C 10,9 km/h (2 Bft)
21.02.2020 05:14 20,2 C 4,9 C 4,5 C 18,8 C 54 % 91 % 1021,4 hPa 0,0 l/m 10,6 km/h (2 Bft) S 180 3,6 C 1,5 C 12,1 km/h (2 Bft)
21.02.2020 05:12 20,3 C 4,8 C 4,4 C 18,8 C 54 % 91 % 1021,4 hPa 0,0 l/m 11,6 km/h (2 Bft) S 180 3,5 C 0,8 C 10,6 km/h (2 Bft)
21.02.2020 05:10 20,3 C 4,8 C 4,5 C 18,8 C 54 % 91 % 1021,4 hPa 0,0 l/m 12,1 km/h (2 Bft) W-SW 247 3,5 C 0,5 C 10,1 km/h (2 Bft)
21.02.2020 05:08 20,3 C 4,8 C 4,3 C 18,8 C 54 % 91 % 1021,4 hPa 0,0 l/m 12,1 km/h (2 Bft) SW 225 3,5 C 0,5 C 19,8 km/h (3 Bft)
21.02.2020 05:06 20,3 C 4,8 C 4,3 C 18,8 C 54 % 91 % 1021,4 hPa 0,0 l/m 12,8 km/h (3 Bft) SW 225 3,5 C 0,0 C 11,6 km/h (2 Bft)
21.02.2020 05:04 20,3 C 4,9 C 4,5 C 18,8 C 54 % 91 % 1021,4 hPa 0,0 l/m 14,2 km/h (3 Bft) SO 135 3,6 C -0,6 C 11,3 km/h (2 Bft)
21.02.2020 05:02 20,3 C 4,9 C 4,5 C 18,8 C 54 % 91 % 1021,4 hPa 0,0 l/m 14,2 km/h (3 Bft) SO 135 3,6 C -0,6 C 11,3 km/h (2 Bft)
21.02.2020 05:01 20,2 C 4,9 C 4,5 C 18,8 C 54 % 91 % 1021,4 hPa 0,0 l/m 14,2 km/h (3 Bft) S 180 3,6 C -0,6 C 16,9 km/h (3 Bft)
21.02.2020 05:00 20,3 C 4,9 C 4,6 C 18,8 C 54 % 91 % 1020,7 hPa 0,0 l/m 14,5 km/h (3 Bft) O-NO 67 3,6 C -0,8 C 16,9 km/h (3 Bft)
21.02.2020 04:58 20,3 C 5,0 C 4,6 C 18,8 C 54 % 92 % 1020,7 hPa 0,0 l/m 15,4 km/h (3 Bft) S-SO 157 3,8 C -1,1 C 25,1 km/h (4 Bft)
21.02.2020 04:56 20,3 C 5,1 C 4,8 C 18,8 C 54 % 92 % 1020,7 hPa 0,0 l/m 15,4 km/h (3 Bft) O-NO 67 3,9 C -1,0 C 23,7 km/h (4 Bft)
21.02.2020 04:54 20,3 C 5,4 C 4,9 C 18,8 C 54 % 92 % 1020,7 hPa 0,0 l/m 13,5 km/h (3 Bft) N-NO 22 4,2 C 0,4 C 14,7 km/h (3 Bft)
21.02.2020 04:52 20,3 C 5,7 C 5,1 C 18,8 C 54 % 93 % 1020,7 hPa 0,0 l/m 13,3 km/h (3 Bft) O-SO 112 4,7 C 0,8 C 19,8 km/h (3 Bft)
21.02.2020 04:50 20,3 C 5,8 C 5,6 C 18,8 C 54 % 93 % 1020,7 hPa 0,1 l/m 13,3 km/h (3 Bft) S 180 4,8 C 0,9 C 24,1 km/h (4 Bft)
21.02.2020 04:48 20,3 C 5,9 C 5,6 C 18,8 C 54 % 93 % 1020,7 hPa 0,2 l/m 12,3 km/h (3 Bft) W 270 4,9 C 1,6 C 19,3 km/h (3 Bft)
21.02.2020 04:46 20,3 C 5,9 C 5,6 C 18,8 C 54 % 93 % 1020,7 hPa 0,0 l/m 12,3 km/h (3 Bft) S 180 4,9 C 1,6 C 14,2 km/h (3 Bft)
21.02.2020 04:44 20,3 C 6,1 C 5,6 C 18,8 C 54 % 91 % 1020,7 hPa 0,0 l/m 13,5 km/h (3 Bft) S-SO 157 4,7 C 1,2 C 8,4 km/h (2 Bft)
21.02.2020 04:42 20,3 C 6,1 C 5,8 C 18,8 C 54 % 91 % 1020,7 hPa 0,0 l/m 15,0 km/h (3 Bft) S-SW 202 4,7 C 0,4 C 12,1 km/h (2 Bft)
21.02.2020 04:40 20,3 C 6,1 C 5,9 C 18,8 C 54 % 91 % 1020,4 hPa 0,0 l/m 16,4 km/h (3 Bft) S-SW 202 4,7 C -0,3 C 10,9 km/h (2 Bft)
21.02.2020 04:38 20,3 C 6,1 C 5,9 C 18,8 C 54 % 91 % 1020,4 hPa 0,0 l/m 17,1 km/h (3 Bft) S 180 4,7 C -0,6 C 13,3 km/h (3 Bft)
21.02.2020 04:36 20,3 C 6,1 C 5,9 C 18,8 C 54 % 91 % 1020,4 hPa 0,0 l/m 17,9 km/h (3 Bft) S-SW 202 4,7 C -0,9 C 15,4 km/h (3 Bft)
21.02.2020 04:34 20,3 C 6,1 C 5,9 C 18,8 C 54 % 91 % 1020,4 hPa 0,0 l/m 18,1 km/h (3 Bft) SW 225 4,7 C -1,0 C 19,6 km/h (3 Bft)
21.02.2020 04:32 20,3 C 6,2 C 5,8 C 18,8 C 54 % 91 % 1020,4 hPa 0,0 l/m 17,6 km/h (3 Bft) S-SW 202 4,8 C -0,7 C 20,8 km/h (4 Bft)
21.02.2020 04:30 20,3 C 6,2 C 5,8 C 18,8 C 54 % 91 % 1020,4 hPa 0,0 l/m 16,7 km/h (3 Bft) SW 225 4,8 C -0,3 C 21,2 km/h (4 Bft)
21.02.2020 04:28 20,3 C 6,2 C 5,8 C 18,8 C 54 % 91 % 1020,4 hPa 0,0 l/m 16,2 km/h (3 Bft) SW 225 4,8 C -0,0 C 23,2 km/h (4 Bft)
21.02.2020 04:26 20,3 C 6,1 C 5,8 C 18,8 C 54 % 91 % 1020,4 hPa 0,0 l/m 15,7 km/h (3 Bft) SW 225 4,7 C 0,1 C 22,4 km/h (4 Bft)
21.02.2020 04:24 20,3 C 6,1 C 5,7 C 18,8 C 54 % 91 % 1020,4 hPa 0,0 l/m 15,2 km/h (3 Bft) SW 225 4,7 C 0,3 C 24,6 km/h (4 Bft)
21.02.2020 04:22 20,3 C 6,1 C 5,8 C 18,8 C 54 % 91 % 1020,4 hPa 0,0 l/m 14,0 km/h (3 Bft) S 180 4,7 C 0,9 C 16,2 km/h (3 Bft)
21.02.2020 04:20 20,3 C 5,9 C 5,7 C 18,8 C 54 % 92 % 1020,7 hPa 0,0 l/m 13,5 km/h (3 Bft) SW 225 4,7 C 0,9 C 15,2 km/h (3 Bft)
21.02.2020 04:18 20,3 C 5,9 C 5,6 C 18,8 C 54 % 92 % 1020,7 hPa 0,0 l/m 13,3 km/h (3 Bft) S-SW 202 4,7 C 1,1 C 18,6 km/h (3 Bft)
21.02.2020 04:16 20,3 C 5,9 C 5,6 C 18,8 C 54 % 92 % 1020,7 hPa 0,1 l/m 12,3 km/h (3 Bft) W-SW 247 4,7 C 1,6 C 15,7 km/h (3 Bft)
21.02.2020 04:14 20,2 C 5,8 C 5,5 C 18,8 C 54 % 91 % 1020,7 hPa 0,0 l/m 11,8 km/h (2 Bft) W-SW 247 4,4 C 1,8 C 17,4 km/h (3 Bft)
21.02.2020 04:12 20,3 C 5,8 C 5,5 C 18,8 C 54 % 91 % 1020,7 hPa 0,0 l/m 12,1 km/h (2 Bft) SW 225 4,4 C 1,6 C 13,8 km/h (3 Bft)
21.02.2020 04:10 20,3 C 5,8 C 5,5 C 18,8 C 54 % 91 % 1020,7 hPa 0,0 l/m 12,8 km/h (3 Bft) SW 225 4,4 C 1,2 C 18,1 km/h (3 Bft)
21.02.2020 04:08 20,3 C 5,7 C 5,2 C 18,8 C 54 % 91 % 1020,7 hPa 0,0 l/m 12,8 km/h (3 Bft) S-SW 202 4,3 C 1,1 C 15,2 km/h (3 Bft)
21.02.2020 04:06 20,3 C 5,7 C 5,1 C 18,8 C 54 % 90 % 1020,7 hPa 0,0 l/m 13,5 km/h (3 Bft) S 180 4,2 C 0,7 C 21,0 km/h (4 Bft)
21.02.2020 04:04 20,3 C 5,8 C 5,2 C 18,8 C 54 % 90 % 1020,7 hPa 0,0 l/m 13,8 km/h (3 Bft) SW 225 4,3 C 0,7 C 15,7 km/h (3 Bft)
21.02.2020 04:02 20,3 C 5,9 C 5,2 C 18,8 C 54 % 90 % 1020,7 hPa 0,1 l/m 14,5 km/h (3 Bft) W-SW 247 4,4 C 0,4 C 12,6 km/h (3 Bft)
21.02.2020 04:00 20,3 C 5,9 C 5,2 C 18,8 C 54 % 90 % 1020,6 hPa 0,0 l/m 15,4 km/h (3 Bft) W-SW 247 4,4 C -0,0 C 23,7 km/h (4 Bft)
21.02.2020 03:58 20,3 C 5,9 C 5,4 C 18,8 C 54 % 89 % 1020,6 hPa 0,0 l/m 15,4 km/h (3 Bft) S 180 4,2 C -0,0 C 17,4 km/h (3 Bft)
21.02.2020 03:56 20,2 C 5,9 C 5,2 C 18,8 C 54 % 89 % 1020,6 hPa 0,1 l/m 17,1 km/h (3 Bft) SW 225 4,2 C -0,8 C 19,1 km/h (3 Bft)
21.02.2020 03:54 20,3 C 6,1 C 5,2 C 18,8 C 54 % 87 % 1020,6 hPa 0,0 l/m 18,1 km/h (3 Bft) SW 225 4,1 C -1,0 C 12,8 km/h (3 Bft)
21.02.2020 03:52 20,2 C 6,1 C 5,5 C 18,8 C 54 % 87 % 1020,6 hPa 0,1 l/m 18,8 km/h (3 Bft) S-SW 202 4,1 C -1,3 C 28,2 km/h (4 Bft)
21.02.2020 03:50 20,2 C 6,3 C 5,7 C 18,8 C 54 % 86 % 1020,6 hPa 0,1 l/m 18,6 km/h (3 Bft) S 180 4,1 C -0,9 C 24,4 km/h (4 Bft)
21.02.2020 03:48 20,2 C 6,6 C 5,9 C 18,8 C 54 % 86 % 1020,6 hPa 0,0 l/m 18,6 km/h (3 Bft) S-SW 202 4,4 C -0,6 C 29,0 km/h (5 Bft)
21.02.2020 03:46 20,2 C 6,4 C 5,7 C 18,8 C 54 % 85 % 1020,6 hPa 0,0 l/m 17,9 km/h (3 Bft) SW 225 4,1 C -0,5 C 25,6 km/h (4 Bft)
21.02.2020 03:44 20,2 C 6,4 C 5,8 C 18,8 C 54 % 85 % 1020,6 hPa 0,0 l/m 17,1 km/h (3 Bft) S-SW 202 4,1 C -0,2 C 26,1 km/h (4 Bft)
21.02.2020 03:42 20,2 C 6,6 C 6,0 C 18,8 C 54 % 85 % 1020,6 hPa 0,0 l/m 16,4 km/h (3 Bft) SW 225 4,3 C 0,4 C 19,3 km/h (3 Bft)
21.02.2020 03:40 20,2 C 6,6 C 6,1 C 18,8 C 54 % 85 % 1020,6 hPa 0,0 l/m 16,9 km/h (3 Bft) SW 225 4,3 C 0,1 C 20,3 km/h (4 Bft)
21.02.2020 03:38 20,2 C 6,6 C 6,0 C 18,8 C 54 % 85 % 1020,6 hPa 0,0 l/m 17,9 km/h (3 Bft) SW 225 4,3 C -0,3 C 17,1 km/h (3 Bft)
21.02.2020 03:36 20,2 C 6,4 C 6,0 C 18,8 C 54 % 85 % 1020,6 hPa 0,0 l/m 17,9 km/h (3 Bft) NW 315 4,1 C -0,5 C 22,0 km/h (4 Bft)
21.02.2020 03:34 20,2 C 6,4 C 6,1 C 18,8 C 54 % 85 % 1020,6 hPa 0,0 l/m 19,6 km/h (3 Bft) S-SW 202 4,1 C -1,2 C 17,1 km/h (3 Bft)
21.02.2020 03:32 20,2 C 6,6 C 6,1 C 18,8 C 54 % 84 % 1020,6 hPa 0,0 l/m 19,8 km/h (3 Bft) W-SW 247 4,1 C -1,0 C 14,0 km/h (3 Bft)
21.02.2020 03:30 20,2 C 6,4 C 6,1 C 18,8 C 54 % 84 % 1020,6 hPa 0,0 l/m 19,3 km/h (3 Bft) N-NW 337 3,9 C -1,1 C 22,9 km/h (4 Bft)
21.02.2020 03:28 20,2 C 6,4 C 6,1 C 18,8 C 54 % 84 % 1020,6 hPa 0,0 l/m 18,3 km/h (3 Bft) S-SW 202 3,9 C -0,7 C 35,2 km/h (5 Bft)
21.02.2020 03:26 20,2 C 6,3 C 6,1 C 18,8 C 54 % 84 % 1020,6 hPa 0,0 l/m 17,4 km/h (3 Bft) SW 225 3,8 C -0,4 C 25,3 km/h (4 Bft)
21.02.2020 03:24 20,2 C 6,2 C 5,9 C 18,8 C 54 % 84 % 1020,6 hPa 0,0 l/m 17,1 km/h (3 Bft) SW 225 3,7 C -0,4 C 35,2 km/h (5 Bft)
21.02.2020 03:22 20,2 C 6,2 C 5,9 C 18,8 C 54 % 84 % 1020,6 hPa 0,0 l/m 16,4 km/h (3 Bft) SW 225 3,7 C -0,1 C 20,5 km/h (4 Bft)
21.02.2020 03:20 20,4 C 6,2 C 6,0 C 18,8 C 54 % 83 % 1020,4 hPa 0,0 l/m 15,9 km/h (3 Bft) W-SW 247 3,5 C 0,1 C 16,2 km/h (3 Bft)
21.02.2020 03:18 20,2 C 6,2 C 6,0 C 18,8 C 54 % 83 % 1020,4 hPa 0,0 l/m 17,4 km/h (3 Bft) S 180 3,5 C -0,6 C 19,1 km/h (3 Bft)
21.02.2020 03:16 20,4 C 6,3 C 6,2 C 18,8 C 54 % 84 % 1020,4 hPa 0,0 l/m 17,9 km/h (3 Bft) SW 225 3,8 C -0,7 C 21,5 km/h (4 Bft)
21.02.2020 03:14 20,2 C 6,3 C 6,2 C 18,8 C 54 % 84 % 1020,4 hPa 0,0 l/m 17,9 km/h (3 Bft) SW 225 3,8 C -0,7 C 22,2 km/h (4 Bft)
21.02.2020 03:12 20,2 C 6,3 C 6,2 C 18,8 C 54 % 84 % 1020,4 hPa 0,0 l/m 18,3 km/h (3 Bft) SW 225 3,8 C -0,8 C 22,9 km/h (4 Bft)
21.02.2020 03:10 20,4 C 6,6 C 6,3 C 18,8 C 54 % 84 % 1020,4 hPa 0,0 l/m 19,3 km/h (3 Bft) SW 225 4,1 C -0,8 C 18,6 km/h (3 Bft)
21.02.2020 03:08 20,4 C 6,4 C 6,2 C 18,8 C 54 % 85 % 1020,4 hPa 0,0 l/m 20,0 km/h (4 Bft) S-SW 202 4,1 C -1,4 C 23,7 km/h (4 Bft)
21.02.2020 03:06 20,4 C 6,4 C 6,1 C 18,8 C 54 % 85 % 1020,4 hPa 0,0 l/m 19,8 km/h (3 Bft) S-SO 157 4,1 C -1,3 C 20,0 km/h (4 Bft)
21.02.2020 03:04 20,4 C 6,1 C 5,8 C 18,8 C 54 % 85 % 1020,4 hPa 0,0 l/m 21,0 km/h (4 Bft) S-SW 202 3,8 C -2,1 C 17,9 km/h (3 Bft)
21.02.2020 03:02 20,4 C 6,1 C 5,8 C 18,8 C 54 % 85 % 1020,4 hPa 0,0 l/m 21,0 km/h (4 Bft) S-SW 202 3,8 C -2,1 C 17,9 km/h (3 Bft)
21.02.2020 03:00 20,4 C 6,0 C 5,7 C 18,8 C 54 % 85 % 1019,9 hPa 0,0 l/m 21,5 km/h (4 Bft) SW 225 3,7 C -2,4 C 26,8 km/h (4 Bft)
21.02.2020 02:58 20,4 C 6,0 C 6,0 C 18,8 C 54 % 86 % 1019,9 hPa 0,0 l/m 20,8 km/h (4 Bft) SW 225 3,8 C -2,2 C 22,7 km/h (4 Bft)
21.02.2020 02:56 20,4 C 6,0 C 6,0 C 18,8 C 54 % 86 % 1019,9 hPa 0,0 l/m 20,5 km/h (4 Bft) SW 225 3,8 C -2,1 C 26,3 km/h (4 Bft)
21.02.2020 02:54 20,4 C 6,0 C 6,1 C 18,8 C 54 % 86 % 1019,9 hPa 0,0 l/m 20,0 km/h (4 Bft) S-SW 202 3,8 C -1,9 C 20,3 km/h (4 Bft)
21.02.2020 02:52 20,4 C 6,0 C 6,1 C 18,8 C 54 % 87 % 1019,9 hPa 0,0 l/m 19,6 km/h (3 Bft) SW 225 4,0 C -1,7 C 27,0 km/h (4 Bft)
21.02.2020 02:50 20,4 C 5,9 C 6,0 C 18,8 C 54 % 89 % 1019,9 hPa 0,0 l/m 18,3 km/h (3 Bft) S-SW 202 4,2 C -1,3 C 22,4 km/h (4 Bft)
21.02.2020 02:48 20,4 C 5,8 C 5,9 C 18,8 C 54 % 89 % 1019,9 hPa 0,0 l/m 17,9 km/h (3 Bft) S-SW 202 4,1 C -1,3 C 20,5 km/h (4 Bft)
21.02.2020 02:46 20,4 C 5,7 C 5,8 C 18,8 C 54 % 90 % 1019,9 hPa 0,0 l/m 17,9 km/h (3 Bft) SW 225 4,2 C -1,4 C 25,1 km/h (4 Bft)
21.02.2020 02:44 20,4 C 5,7 C 5,8 C 18,8 C 54 % 90 % 1019,9 hPa 0,0 l/m 18,3 km/h (3 Bft) SW 225 4,2 C -1,6 C 21,5 km/h (4 Bft)
21.02.2020 02:42 20,4 C 5,5 C 5,6 C 18,8 C 54 % 91 % 1019,9 hPa 0,0 l/m 17,6 km/h (3 Bft) S-SW 202 4,2 C -1,5 C 20,8 km/h (4 Bft)
21.02.2020 02:40 20,4 C 5,4 C 5,5 C 18,8 C 54 % 92 % 1020,1 hPa 0,0 l/m 18,3 km/h (3 Bft) SW 225 4,2 C -2,0 C 22,2 km/h (4 Bft)
21.02.2020 02:38 20,4 C 5,3 C 5,3 C 18,8 C 54 % 92 % 1020,1 hPa 0,0 l/m 17,6 km/h (3 Bft) SW 225 4,1 C -1,8 C 30,7 km/h (5 Bft)
21.02.2020 02:36 20,4 C 5,1 C 5,2 C 18,8 C 54 % 93 % 1020,1 hPa 0,0 l/m 17,4 km/h (3 Bft) SW 225 4,1 C -1,9 C 24,9 km/h (4 Bft)
21.02.2020 02:34 20,4 C 4,5 C 4,9 C 18,8 C 54 % 94 % 1020,1 hPa 0,0 l/m 16,4 km/h (3 Bft) S 180 3,6 C -2,2 C 17,9 km/h (3 Bft)
21.02.2020 02:32 20,4 C 4,4 C 4,6 C 18,8 C 55 % 94 % 1020,1 hPa 0,0 l/m 15,4 km/h (3 Bft) SW 225 3,5 C -1,9 C 19,1 km/h (3 Bft)
21.02.2020 02:30 20,4 C 3,8 C 4,0 C 18,8 C 55 % 94 % 1020,1 hPa 0,0 l/m 14,5 km/h (3 Bft) W-SW 247 2,9 C -2,1 C 30,7 km/h (5 Bft)
21.02.2020 02:28 20,4 C 3,3 C 3,7 C 18,8 C 55 % 95 % 1020,1 hPa 0,0 l/m 12,8 km/h (3 Bft) S-SW 202 2,6 C -1,7 C 22,7 km/h (4 Bft)
21.02.2020 02:26 20,4 C 3,3 C 3,6 C 18,8 C 54 % 95 % 1020,1 hPa 0,0 l/m 11,1 km/h (2 Bft) S-SW 202 2,6 C -0,6 C 17,4 km/h (3 Bft)
21.02.2020 02:24 20,4 C 2,9 C 3,3 C 18,8 C 55 % 96 % 1020,1 hPa 0,0 l/m 10,1 km/h (2 Bft) SW 225 2,3 C -0,3 C 16,4 km/h (3 Bft)
21.02.2020 02:22 20,4 C 2,5 C 2,8 C 18,8 C 54 % 96 % 1020,1 hPa 0,0 l/m 8,7 km/h (2 Bft) W-SW 247 1,9 C 0,4 C 14,5 km/h (3 Bft)
21.02.2020 02:20 20,4 C 2,0 C 2,6 C 18,8 C 54 % 96 % 1020,3 hPa 0,0 l/m 7,2 km/h (2 Bft) S 180 1,4 C 1,2 C 9,2 km/h (2 Bft)
21.02.2020 02:18 20,4 C 1,8 C 2,2 C 18,8 C 54 % 96 % 1020,3 hPa 0,0 l/m 7,0 km/h (2 Bft) S-SW 202 1,2 C 1,2 C 9,2 km/h (2 Bft)
21.02.2020 02:16 20,4 C 1,8 C 2,1 C 18,8 C 54 % 96 % 1020,3 hPa 0,0 l/m 6,8 km/h (2 Bft) S-SW 202 1,2 C 1,4 C 9,9 km/h (2 Bft)
21.02.2020 02:14 20,4 C 1,7 C 2,1 C 18,8 C 55 % 96 % 1020,3 hPa 0,0 l/m 6,5 km/h (2 Bft) W 270 1,1 C 1,6 C 12,3 km/h (3 Bft)
21.02.2020 02:12 20,4 C 1,7 C 2,1 C 18,8 C 55 % 96 % 1020,3 hPa 0,0 l/m 7,0 km/h (2 Bft) W-SW 247 1,1 C 1,1 C 6,3 km/h (2 Bft)
21.02.2020 02:10 20,4 C 1,7 C 2,1 C 18,8 C 55 % 96 % 1020,3 hPa 0,0 l/m 7,5 km/h (2 Bft) SW 225 1,1 C 0,6 C 6,5 km/h (2 Bft)
21.02.2020 02:08 20,4 C 1,7 C 2,1 C 18,8 C 55 % 96 % 1020,3 hPa 0,0 l/m 8,0 km/h (2 Bft) SW 225 1,1 C 0,1 C 8,7 km/h (2 Bft)
21.02.2020 02:06 20,4 C 1,3 C 1,8 C 18,8 C 55 % 96 % 1020,3 hPa 0,0 l/m 8,4 km/h (2 Bft) SW 225 0,7 C -0,7 C 8,9 km/h (2 Bft)
21.02.2020 02:04 20,4 C 1,3 C 1,6 C 18,8 C 55 % 96 % 1020,3 hPa 0,0 l/m 9,7 km/h (2 Bft) S-SO 157 0,7 C -1,8 C 6,8 km/h (2 Bft)
21.02.2020 02:02 20,4 C 1,3 C 1,5 C 18,8 C 55 % 96 % 1020,3 hPa 0,0 l/m 10,9 km/h (2 Bft) SW 225 0,7 C -2,7 C 10,9 km/h (2 Bft)
21.02.2020 02:00 20,4 C 1,2 C 1,5 C 18,8 C 55 % 96 % 1020,3 hPa 0,0 l/m 11,8 km/h (2 Bft) S-SW 202 0,6 C -3,5 C 8,0 km/h (2 Bft)
21.02.2020 01:58 20,4 C 1,3 C 1,4 C 18,8 C 55 % 96 % 1020,3 hPa 0,0 l/m 13,3 km/h (3 Bft) SW 225 0,7 C -4,4 C 12,8 km/h (3 Bft)
21.02.2020 01:56 20,4 C 1,2 C 1,4 C 18,8 C 55 % 96 % 1020,3 hPa 0,0 l/m 13,8 km/h (3 Bft) SW 225 0,6 C -4,8 C 12,8 km/h (3 Bft)
21.02.2020 01:54 20,4 C 1,3 C 1,4 C 18,8 C 55 % 96 % 1020,3 hPa 0,0 l/m 14,2 km/h (3 Bft) S-SW 202 0,7 C -4,9 C 9,2 km/h (2 Bft)
21.02.2020 01:52 20,4 C 1,3 C 1,4 C 18,8 C 55 % 96 % 1020,3 hPa 0,0 l/m 14,7 km/h (3 Bft) SW 225 0,7 C -5,2 C 18,8 km/h (3 Bft)
21.02.2020 01:50 20,4 C 1,3 C 1,4 C 18,8 C 55 % 96 % 1020,3 hPa 0,0 l/m 14,2 km/h (3 Bft) S-SW 202 0,7 C -4,9 C 15,2 km/h (3 Bft)
21.02.2020 01:48 20,4 C 1,4 C 1,4 C 18,9 C 55 % 96 % 1020,3 hPa 0,0 l/m 14,2 km/h (3 Bft) SW 225 0,8 C -4,8 C 22,2 km/h (4 Bft)
21.02.2020 01:46 20,4 C 1,5 C 1,5 C 18,9 C 55 % 96 % 1020,3 hPa 0,0 l/m 13,8 km/h (3 Bft) SW 225 0,9 C -4,4 C 17,9 km/h (3 Bft)
21.02.2020 01:44 20,4 C 1,4 C 1,5 C 18,9 C 55 % 97 % 1020,3 hPa 0,0 l/m 13,3 km/h (3 Bft) S 180 1,0 C -4,3 C 14,5 km/h (3 Bft)
21.02.2020 01:42 20,4 C 1,4 C 1,5 C 18,9 C 55 % 97 % 1020,3 hPa 0,0 l/m 12,8 km/h (3 Bft) W-SW 247 1,0 C -3,9 C 22,2 km/h (4 Bft)
21.02.2020 01:40 20,4 C 1,4 C 1,5 C 18,9 C 55 % 97 % 1020,5 hPa 0,0 l/m 11,8 km/h (2 Bft) SW 225 1,0 C -3,2 C 10,6 km/h (2 Bft)
21.02.2020 01:38 20,4 C 1,4 C 1,4 C 18,9 C 55 % 97 % 1020,5 hPa 0,0 l/m 10,6 km/h (2 Bft) S 180 1,0 C -2,4 C 18,1 km/h (3 Bft)
21.02.2020 01:36 20,4 C 1,3 C 1,3 C 18,9 C 55 % 97 % 1020,5 hPa 0,0 l/m 9,4 km/h (2 Bft) S-SW 202 0,9 C -1,5 C 14,7 km/h (3 Bft)
21.02.2020 01:34 20,4 C 1,3 C 1,3 C 18,9 C 55 % 97 % 1020,5 hPa 0,0 l/m 8,4 km/h (2 Bft) SW 225 0,9 C -0,7 C 15,9 km/h (3 Bft)
21.02.2020 01:32 20,4 C 1,2 C 1,3 C 18,9 C 55 % 97 % 1020,5 hPa 0,0 l/m 7,7 km/h (2 Bft) S-SW 202 0,8 C -0,1 C 9,9 km/h (2 Bft)
21.02.2020 01:30 20,4 C 1,2 C 1,2 C 18,9 C 55 % 97 % 1020,5 hPa 0,0 l/m 7,2 km/h (2 Bft) S-SW 202 0,8 C 0,4 C 11,1 km/h (2 Bft)
21.02.2020 01:28 20,4 C 1,1 C 1,1 C 18,9 C 55 % 97 % 1020,5 hPa 0,0 l/m 7,0 km/h (2 Bft) S 180 0,7 C 0,5 C 13,3 km/h (3 Bft)
21.02.2020 01:26 20,4 C 0,9 C 0,9 C 18,9 C 55 % 97 % 1020,5 hPa 0,0 l/m 7,5 km/h (2 Bft) S 180 0,5 C -0,2 C 7,0 km/h (2 Bft)
21.02.2020 01:24 20,4 C 0,9 C 0,8 C 18,9 C 55 % 98 % 1020,5 hPa 0,0 l/m 7,5 km/h (2 Bft) S-SW 202 0,6 C -0,2 C 6,5 km/h (2 Bft)
21.02.2020 01:22 20,4 C 0,9 C 0,8 C 18,9 C 55 % 98 % 1020,5 hPa 0,0 l/m 7,7 km/h (2 Bft) S-SW 202 0,6 C -0,4 C 8,2 km/h (2 Bft)
21.02.2020 01:20 20,4 C 0,9 C 0,9 C 18,9 C 55 % 98 % 1021,1 hPa 0,0 l/m 8,0 km/h (2 Bft) S 180 0,6 C -0,7 C 8,0 km/h (2 Bft)
21.02.2020 01:18 20,4 C 0,9 C 1,1 C 18,9 C 55 % 98 % 1021,1 hPa 0,0 l/m 8,2 km/h (2 Bft) S-SW 202 0,6 C -0,9 C 12,3 km/h (3 Bft)
21.02.2020 01:16 20,4 C 1,1 C 1,2 C 18,9 C 55 % 98 % 1021,1 hPa 0,0 l/m 8,0 km/h (2 Bft) SW 225 0,8 C -0,5 C 8,0 km/h (2 Bft)
21.02.2020 01:14 20,4 C 0,9 C 1,1 C 18,9 C 55 % 98 % 1021,1 hPa 0,0 l/m 7,2 km/h (2 Bft) S 180 0,6 C 0,1 C 9,2 km/h (2 Bft)
21.02.2020 01:12 20,4 C 0,9 C 0,9 C 18,9 C 55 % 98 % 1021,1 hPa 0,0 l/m 7,0 km/h (2 Bft) S-SW 202 0,6 C 0,3 C 8,2 km/h (2 Bft)
21.02.2020 01:10 20,4 C 0,9 C 0,9 C 18,9 C 55 % 98 % 1021,1 hPa 0,0 l/m 7,0 km/h (2 Bft) SW 225 0,6 C 0,3 C 9,2 km/h (2 Bft)
21.02.2020 01:08 20,4 C 0,8 C 0,9 C 18,9 C 55 % 98 % 1021,1 hPa 0,0 l/m 6,5 km/h (2 Bft) S 180 0,5 C 0,7 C 11,1 km/h (2 Bft)
21.02.2020 01:06 20,4 C 0,9 C 0,9 C 18,9 C 55 % 98 % 1021,1 hPa 0,0 l/m 6,3 km/h (2 Bft) SW 225 0,6 C 0,9 C 9,2 km/h (2 Bft)
21.02.2020 01:04 20,4 C 0,9 C 0,9 C 18,9 C 55 % 98 % 1021,1 hPa 0,0 l/m 6,3 km/h (2 Bft) S 180 0,6 C 0,9 C 7,5 km/h (2 Bft)
21.02.2020 01:02 20,4 C 0,7 C 0,9 C 18,9 C 55 % 98 % 1021,1 hPa 0,0 l/m 6,0 km/h (2 Bft) W 270 0,4 C 0,7 C 5,8 km/h (2 Bft)
21.02.2020 01:00 20,4 C 0,6 C 0,8 C 18,9 C 55 % 98 % 1021,0 hPa 0,0 l/m 6,0 km/h (2 Bft) SW 225 0,3 C 0,6 C 9,9 km/h (2 Bft)
21.02.2020 00:58 20,4 C 0,6 C 0,7 C 18,9 C 55 % 98 % 1021,0 hPa 0,0 l/m 5,6 km/h (1 Bft) SW 225 0,3 C 0,6 C 5,1 km/h (1 Bft)
21.02.2020 00:56 20,4 C 0,6 C 0,6 C 18,9 C 55 % 98 % 1021,0 hPa 0,0 l/m 5,6 km/h (1 Bft) SW 225 0,3 C 0,6 C 8,0 km/h (2 Bft)
21.02.2020 00:54 20,4 C 0,6 C 0,7 C 18,9 C 55 % 98 % 1021,0 hPa 0,0 l/m 5,6 km/h (1 Bft) SW 225 0,3 C 0,6 C 7,0 km/h (2 Bft)
21.02.2020 00:52 20,4 C 0,7 C 0,7 C 18,9 C 55 % 98 % 1021,0 hPa 0,0 l/m 6,0 km/h (2 Bft) W-SW 247 0,4 C 0,7 C 5,8 km/h (2 Bft)
21.02.2020 00:50 20,4 C 0,7 C 0,7 C 18,9 C 55 % 98 % 1021,0 hPa 0,0 l/m 6,0 km/h (2 Bft) S-SW 202 0,4 C 0,7 C 5,8 km/h (2 Bft)
21.02.2020 00:48 20,4 C 0,9 C 0,8 C 18,9 C 55 % 98 % 1021,0 hPa 0,0 l/m 6,0 km/h (2 Bft) SW 225 0,6 C 0,9 C 10,1 km/h (2 Bft)
21.02.2020 00:46 20,4 C 0,9 C 1,0 C 18,9 C 55 % 98 % 1021,0 hPa 0,0 l/m 5,6 km/h (1 Bft) SW 225 0,6 C 0,9 C 7,5 km/h (2 Bft)
21.02.2020 00:44 20,4 C 0,9 C 0,8 C 18,9 C 55 % 98 % 1021,0 hPa 0,0 l/m 5,6 km/h (1 Bft) S 180 0,6 C 0,9 C 7,5 km/h (2 Bft)
21.02.2020 00:42 20,4 C 0,7 C 0,7 C 18,9 C 55 % 98 % 1021,0 hPa 0,0 l/m 4,6 km/h (1 Bft) S-SW 202 0,4 C 0,7 C 5,8 km/h (2 Bft)
21.02.2020 00:40 20,4 C 0,7 C 0,7 C 18,9 C 55 % 98 % 1020,8 hPa 0,0 l/m 4,6 km/h (1 Bft) S 180 0,4 C 0,7 C 4,8 km/h (1 Bft)
21.02.2020 00:38 20,5 C 0,7 C 0,7 C 18,9 C 55 % 98 % 1020,8 hPa 0,0 l/m 4,1 km/h (1 Bft) SW 225 0,4 C 0,7 C 4,6 km/h (1 Bft)
21.02.2020 00:36 20,5 C 0,7 C 0,7 C 18,9 C 55 % 98 % 1020,8 hPa 0,0 l/m 3,6 km/h (1 Bft) SW 225 0,4 C 0,7 C 5,1 km/h (1 Bft)
21.02.2020 00:34 20,5 C 0,6 C 0,6 C 18,9 C 55 % 98 % 1020,8 hPa 0,0 l/m 3,4 km/h (1 Bft) SW 225 0,3 C 0,6 C 6,0 km/h (2 Bft)
21.02.2020 00:32 20,5 C 0,6 C 0,6 C 18,9 C 55 % 98 % 1020,8 hPa 0,0 l/m 2,7 km/h (1 Bft) SW 225 0,3 C 0,6 C 3,4 km/h (1 Bft)
21.02.2020 00:30 20,5 C 0,6 C 0,4 C 18,9 C 55 % 98 % 1020,8 hPa 0,0 l/m 2,7 km/h (1 Bft) S 180 0,3 C 0,6 C 5,3 km/h (1 Bft)
21.02.2020 00:28 20,4 C 0,3 C 0,1 C 18,9 C 55 % 98 % 1020,8 hPa 0,0 l/m 2,9 km/h (1 Bft) S-SW 202 0,0 C 0,3 C 7,7 km/h (2 Bft)
21.02.2020 00:26 20,5 C 0,4 C 0,3 C 18,9 C 55 % 98 % 1020,8 hPa 0,0 l/m 3,1 km/h (1 Bft) S-SW 202 0,1 C 0,4 C 2,9 km/h (1 Bft)
21.02.2020 00:24 20,5 C 0,3 C 0,0 C 18,9 C 55 % 97 % 1020,8 hPa 0,0 l/m 3,1 km/h (1 Bft) S-SW 202 -0,1 C 0,3 C 3,9 km/h (1 Bft)
21.02.2020 00:22 20,5 C 0,4 C 0,3 C 18,9 C 55 % 97 % 1020,8 hPa 0,0 l/m 3,6 km/h (1 Bft) S 180 -0,0 C 0,4 C 4,3 km/h (1 Bft)
21.02.2020 00:20 20,5 C 0,3 C 0,0 C 18,9 C 55 % 97 % 1021,1 hPa 0,0 l/m 3,6 km/h (1 Bft) S 180 -0,1 C 0,3 C 3,9 km/h (1 Bft)
21.02.2020 00:18 20,5 C 0,1 C 0,1 C 18,9 C 55 % 97 % 1021,1 hPa 0,0 l/m 3,6 km/h (1 Bft) NW 315 -0,3 C 0,1 C 9,2 km/h (2 Bft)
21.02.2020 00:16 20,5 C 0,1 C -0,1 C 18,9 C 55 % 97 % 1021,1 hPa 0,0 l/m 3,6 km/h (1 Bft) S 180 -0,3 C 0,1 C 9,2 km/h (2 Bft)
21.02.2020 00:14 20,5 C 0,1 C 0,0 C 18,9 C 55 % 97 % 1021,1 hPa 0,0 l/m 3,1 km/h (1 Bft) S 180 -0,3 C 0,1 C 4,1 km/h (1 Bft)
21.02.2020 00:12 20,5 C 0,4 C 0,3 C 18,9 C 55 % 97 % 1021,1 hPa 0,0 l/m 3,1 km/h (1 Bft) S 180 -0,0 C 0,4 C 4,6 km/h (1 Bft)
21.02.2020 00:10 20,5 C 0,3 C 0,0 C 18,9 C 55 % 97 % 1021,1 hPa 0,0 l/m 3,4 km/h (1 Bft) SW 225 -0,1 C 0,3 C 3,1 km/h (1 Bft)
21.02.2020 00:08 20,5 C 0,1 C -0,2 C 18,9 C 55 % 97 % 1021,1 hPa 0,0 l/m 3,6 km/h (1 Bft) S-SW 202 -0,3 C 0,1 C 5,8 km/h (2 Bft)
21.02.2020 00:06 20,5 C 0,1 C -0,1 C 18,9 C 55 % 97 % 1021,1 hPa 0,0 l/m 3,6 km/h (1 Bft) S 180 -0,3 C 0,1 C 6,3 km/h (2 Bft)
21.02.2020 00:04 20,5 C 0,0 C -0,2 C 18,9 C 55 % 97 % 1021,1 hPa 0,0 l/m 3,4 km/h (1 Bft) S 180 -0,4 C 0,0 C 6,3 km/h (2 Bft)
21.02.2020 00:02 20,5 C 0,0 C -0,2 C 18,9 C 55 % 97 % 1021,1 hPa 0,0 l/m 3,4 km/h (1 Bft) S 180 -0,4 C 0,0 C 6,3 km/h (2 Bft)
21.02.2020 00:00 20,5 C 0,0 C -0,2 C 18,9 C 55 % 97 % 1021,0 hPa 0,0 l/m 3,4 km/h (1 Bft) S 180 -0,4 C 0,0 C 7,2 km/h (2 Bft)
_ Min-Zeit 03:12 00:00 00:00 01:50 05:54 03:18 02:42 - 00:30 - - 00:00 01:52 00:26
Minimum _ 20,2 C 0,0 C -0,2 C 18,8 C 53 % 83 % 1019,9 hPa - 2,7 km/h (1 Bft) - - -0,4 C -5,2 C 2,9 km/h (1 Bft)
_ Max-Zeit 00:00 03:10 03:10 00:00 06:46 00:26 06:42 04:48 03:00 - - 04:46 06:38 03:24
Maximum _ 20,5 C 6,6 C 6,3 C 18,9 C 58 % 98 % 1025,5 hPa 0,2 l/m 21,5 km/h
SW (4 Bft)
- - 4,9 C 3,4 C 35,2 km/h
SW (5 Bft)
Durchschnitt _ 20,3 C 3,9 C 3,7 C 18,8 C 55 % 92 % 1021,3 hPa #0,8 l/m 11,9 km/h (2 Bft) SW - 2,7 C -0,1 C 15,1 km/h (3 Bft)